{"data":{"norad_id":51623,"intl_designator":"2022-012B","name":"ONEWEB-0411","alt_names":[],"object_type":"PAYLOAD","status":"ACTIVE","operator":null,"country":"UK","launch_date":"2022-02-10","launch_site_code":"FRGUI","launch_vehicle":null,"mission":null,"orbit_class":"UNKNOWN","rcs_meters":null,"size_class":null,"mass_kg":null,"dimensions":null,"purposes":["comms"],"wikipedia_slug":null,"has_3d_model":false,"image_url":null,"decayed_at":null,"tle_current":{"epoch":"2026-09-20T01:52:55.818048Z","epoch_age_seconds":62209,"freshness":"FRESH","line1":"1 51623U 22012B   26263.07842382  .00000686  00000+0  19278-2 0  9995","line2":"2 51623  87.8906  17.3818 0001278  91.8388 268.2886 13.10372776221710","mean_motion":13.10372776,"eccentricity":0.0001278,"inclination_deg":87.8906,"raan_deg":17.3818,"arg_perigee_deg":91.8388,"mean_anomaly_deg":268.2886,"bstar":0.0019278,"rev_number":22171,"period_min":109.89239294147,"perigee_km":1220.7460479236,"apogee_km":1222.688570685,"semimajor_km":7599.8543093043,"source":"CELESTRAK","updated_at":"2026-09-20T09:00:44.707642Z"}}}